Regional Weather Roundup
Issued by NWS

Home | Current Version | Previous Version | Graphics & Text | Print | Product List | Glossary On
Versions: 1 2 3 4 5 6 7 8 9 10 11 12 13 14 15 16 17 18 19 20 21 22 23 24 25 26 27 28 29 30 31 32 33 34 35 36 37 38 39 40 41 42 43 44 45 46 47 48 49 50
000
ASUS43 KLOT 202308
RWRIL

ILLINOIS REGIONAL WEATHER ROUNDUP
NATIONAL WEATHER SERVICE CHICAGO/ROMEOVILLE IL
500 PM CST SAT JAN 20 2018

NOTE: "FAIR" INDICATES FEW OR NO CLOUDS BELOW 12,000 FEET WITH NO
SIGNIFICANT WEATHER AND/OR OBSTRUCTIONS TO VISIBILITY.

* THESE STATIONS ARE NOT UNDER NWS QUALITY CONTROL. THEY ALSO MAY NOT
  REPORT WEATHER SUCH AS PRECIPITATION OR FOG.

ILZ001-002-007-009-015-016-024-210000-
NORTHWEST ILLINOIS

CITY           SKY/WX    TMP DP  RH WIND       PRES   REMARKS
MOLINE         CLOUDY    43  37  79 SE3       29.92S
STERLING*      FAIR      40  36  86 CALM      29.95R
SAVANNA*       FAIR      40  33  78 S3        29.92S
$$

ILZ003-004-008-010-011-017-018-210000-
NORTH CENTRAL ILLINOIS

CITY           SKY/WX    TMP DP  RH WIND       PRES   REMARKS
ROCKFORD       FAIR      41  31  67 W3        29.96R
FREEPORT*      FAIR      37  34  87 SE3       29.94S
ROCHELLE*      FAIR      39  37  92 SW8       29.95R WCI  33
DE KALB*       FAIR      38  36  90 S5        29.95S WCI  35
PERU*          CLOUDY    41  36  81 CALM      29.97S
$$

ILZ005-006-012>014-019>023-210000-
NORTHEAST ILLINOIS

CITY           SKY/WX    TMP DP  RH WIND       PRES   REMARKS
CHICAGO-OHARE  FAIR      42  33  70 SW5       29.95R
CHICAGO-MIDWAY MOCLDY    43  36  76 S6        29.97R
AURORA         FAIR      39  35  86 S8        29.95R WCI  33
LANSING*       CLOUDY    40  38  91 SW3       29.99R
JOLIET*        CLOUDY    44  39  83 S5        29.97S
WAUKEGAN       FAIR      38  30  73 SW8       29.95R WCI  32
DUPAGE AIRPORT FAIR      40  35  83 SE3       29.95R
KANKAKEE*      CLOUDY   N/A N/A N/A SW5       30.01R
WHEELING       FAIR      44  33  65 S3        29.97R
MORRIS*        CLOUDY    41  37  86 SW7       29.97R
ROMEOVILLE*    CLOUDY    41  37  86 S8        29.97R
NORTHERLY ISL    N/A     44  34  67 S6          N/A
$$

LMZ740>746-210000-
SOUTHERN LAKE MICHIGAN

STATION/POSITION SKY/WX   TEMP    WIND        PRES    VSBY  WAVE
                          AIR SEA DIR/SP/G                  HT/PER
                          (F)     (DEG/KT/KT) (MB)    (MI)  (FT/S)
HARRISON CRIB              46     210/ 13/ 14   N/A
BURNHAM HARBOR             44     190/  3/ 10   N/A
CALUMET HARBOR             42     180/  7/ 12 1014.3R
BURNS HARBOR               42     190/ 10/ 12 1015.9R
MICHIGAN CITY              42     190/  8/ 10   N/A
$$

ILZ025>027-034>036-040-047-049-050-058-095>099-210000-
WEST-CENTRAL ILLINOIS

CITY           SKY/WX    TMP DP  RH WIND       PRES   REMARKS
QUINCY         CLOUDY    46  40  79 S6        29.93S
GALESBURG*     CLOUDY    43  39  87 CALM      29.95S
MACOMB*        CLOUDY    44  40  85 CALM      29.96R
JACKSONVILLE*  CLOUDY    46  38  76 S3        29.96S
PITTSFIELD*    CLOUDY    46  40  81 SE6       29.96S
$$

ILZ028>032-037-038-041>044-048-051>054-059>061-210000-
CENTRAL ILLINOIS

CITY           SKY/WX    TMP DP  RH WIND       PRES   REMARKS
PONTIAC        CLOUDY    41  40  97 S6        29.99R
BLOOMINGTON    CLOUDY    41  37  86 S9        29.97R
DECATUR        CLOUDY    43  38  82 S10       29.99S
PEORIA         CLOUDY    45  39  79 S5        29.96R
LACON*         CLOUDY    41  37  84 CALM      29.96R
LINCOLN*       CLOUDY    45  40  83 S8        29.98R
SPRINGFIELD    CLOUDY    46  38  73 S8        29.99R
TAYLORVILLE    CLOUDY    44  36  74 SE7       29.99S
$$

ILZ033-039-045-046-055>057-062-063-210000-
EAST-CENTRAL ILLINOIS

CITY           SKY/WX    TMP DP  RH WIND       PRES   REMARKS
CHAMPAIGN      CLOUDY    39  36  89 S10       30.01R WCI  32
DANVILLE*      CLOUDY    39  33  80 S8        29.99R WCI  33
RANTOUL*       CLOUDY    39  37  93 S7        30.00R WCI  34
MATTOON        CLOUDY    42  33  70 SE8       30.01R
PARIS*         CLOUDY    37  33  84 S7        30.04R WCI  32
$$

ILZ079-100>102-210000-
SOUTHWEST ILLINOIS

CITY           SKY/WX    TMP DP  RH WIND       PRES   REMARKS
ALTON          PTCLDY    48  39  71 E12       29.97R
BELLEVILLE     CLOUDY    48  39  69 SE9       29.97R
CAHOKIA*       CLOUDY    51  39  63 SE12      29.95R
SPARTA*        PTCLDY    46  40  78 SE13      30.00R
$$

ILZ064>066-069>071-074>076-080>082-084>086-088>090-092>094-210000-
SOUTH-CENTRAL ILLINOIS

CITY           SKY/WX    TMP DP  RH WIND       PRES   REMARKS
CARBONDALE     CLOUDY    44  40  85 S14       30.03F
CAIRO*         CLOUDY    41  34  76 E3        30.07S
EFFINGHAM*     FAIR      45  42  88 SE6       30.04R
MARION         CLOUDY    43  43 100 S17       30.06F
MT. VERNON     FAIR      45  39  79 S13       30.03S
CENTRALIA*     CLOUDY    47  42  84 S12       29.99F
SALEM*         FAIR      48  42  79 S7        30.01S
METROPOLIS*    CLOUDY    44  35  70 CALM      30.09S
$$

ILZ067-068-072-073-078-083-087-091-210000-
SOUTHEAST ILLINOIS

CITY           SKY/WX    TMP DP  RH WIND       PRES   REMARKS
LAWRENCEVILLE  CLOUDY    39  31  72 S12       30.06F WCI  32
FLORA*         MOCLDY    44  40  85 S10       30.03F
FAIRFIELD*     CLOUDY    44  40  83 S8        30.04F
HARRISBURG*    CLOUDY    42  40  93 S8        30.08F
ROBINSON*      CLOUDY    41  39  93 S7        30.06S
CARMI*         CLOUDY    40  38  92 S9        30.07S
$$

ABBREVIATIONS USED IN REMARKS
   TC - TEMPERATURE IN CELSIUS
  WCI - WIND CHILL INDEX
   HX - HEAT INDEX
  VSB - VISIBILITY
$$




USA.gov is the U.S. government's official web portal to all federal, state and local government web resources and services.